Location: Bremen
(53.0793°N, 8.8017°E)
Time: 03:59:38
(UTC+01:00)

Vanguard 1 Rocket - Pass Details

Date: 10 December 2021
Orbit: 651 x 4224 km, 34.3° (Epoch: 19 January)

Event Time Altitude Azimuth Distance (km) Brightness Sun altitude
Rises 00:07:39 0° 186° (S) 3,767 - -59.8°
Reaches altitude 10° 00:12:26 10° 154° (SSE) 3,399 - -59.8°
Maximum altitude 00:15:05 12° 136° (SE) 3,611 - -59.8°
Drops below altitude 10° 00:18:12 10° 118° (ESE) 4,146 - -59.8°
Exits shadow 00:24:22 - 97° (E) 5,644 11.4 -59.8°
Sets 00:26:18 0° 93° (E) 6,158 11.7 -59.8°
